This demonstration page uses our WeatherBlox Daily Observations layout. Learn more.

Left ArrowRight Arrow

Hourly Observations for October 5, 2015

Temp ( °F °C ) Dew Point ( °F °C ) Humidity (%) Winds ( mph kmh ) Pressure ( in mb ) Visibility ( mi km ) Precip ( " mm )
12:15 am 00:15 Mostly Cloudy 53 11.8 46 8 78 78 E 6 9 30.12 1020 10 16 N/A
12:35 am 00:35 Mostly Cloudy 52 11.2 46 7.8 80 80 ESE 7 11 30.15 1021 10 16 N/A
12:55 am 00:55 Partly Cloudy 51 10.7 46 7.5 81 81 ESE 7 11 30.15 1021 10 16 N/A
1:15 am 01:15 Partly Cloudy 50 10.2 45 7.2 82 82 ESE 7 11 30.15 1021 10 16 N/A
1:35 am 01:35 Mostly Cloudy 50 10.1 45 7.3 83 83 ESE 7 11 30.15 1021 10 16 N/A
1:55 am 01:55 Cloudy 51 10.5 46 7.5 82 82 ESE 7 11 30.15 1021 10 16 N/A
2:15 am 02:15 Cloudy 51 10.6 46 7.5 81 81 E 7 11 30.15 1021 10 16 N/A
2:35 am 02:35 Cloudy 52 11 46 7.6 80 80 ESE 7 11 30.15 1021 10 16 N/A
2:55 am 02:55 Cloudy 52 11.2 46 7.6 79 79 ESE 7 11 30.15 1021 10 16 N/A
3:15 am 03:15 Cloudy 53 11.6 45 7.2 75 75 ESE 6 9 30.12 1020 10 16 N/A
3:35 am 03:35 Cloudy 53 11.5 45 7 74 74 ESE 8 13 30.12 1020 10 16 N/A
3:55 am 03:55 Cloudy 53 11.5 45 7 74 74 ESE 8 13 30.12 1020 10 16 N/A
4:15 am 04:15 Cloudy 53 11.5 45 7 74 74 SE 8 13 30.12 1020 10 16 N/A
4:35 am 04:35 Cloudy 53 11.6 44 6.8 73 73 SE 6 9 30.12 1020 10 16 N/A
4:55 am 04:55 Cloudy 53 11.5 45 7 74 74 SE 5 7 30.12 1020 10 16 N/A
5:15 am 05:15 Cloudy 53 11.5 45 7.1 75 75 ESE 6 9 30.12 1020 10 16 N/A
5:35 am 05:35 Cloudy 53 11.5 45 7.1 75 75 SE 6 9 30.12 1020 10 16 N/A
5:55 am 05:55 Cloudy 53 11.6 45 7.1 74 74 ESE 7 11 30.12 1020 10 16 N/A
6:15 am 06:15 Cloudy 53 11.6 45 7.1 74 74 ESE 7 11 30.12 1020 10 16 N/A
6:40 am 06:40 Cloudy 53 11.6 45 7.3 75 75 SE 7 11 30.12 1020 10 16 N/A
6:55 am 06:55 Cloudy 53 11.7 46 7.5 76 76 SE 7 11 30.12 1020 10 16 N/A
7:15 am 07:15 Cloudy 54 12 46 7.5 74 74 SE 6 9 30.12 1020 10 16 N/A
7:35 am 07:35 Cloudy 53 11.9 46 7.7 76 76 SE 7 11 30.12 1020 10 16 N/A
7:55 am 07:55 Cloudy 54 12.1 46 7.8 75 75 SSE 7 11 30.12 1020 10 16 N/A
8:15 am 08:15 Cloudy 54 12.2 46 7.8 75 75 SSE 8 13 30.12 1020 10 16 N/A
8:35 am 08:35 Cloudy 54 12.3 46 8 75 75 SSE 7 11 30.12 1020 10 16 N/A
8:55 am 08:55 Cloudy 55 12.5 47 8.3 76 76 SSE 7 11 30.15 1021 10 16 N/A
9:15 am 09:15 Cloudy 55 12.8 47 8.5 75 75 SSE 6 9 30.15 1021 10 16 N/A
9:35 am 09:35 Cloudy 55 13 48 8.7 75 75 SE 5 7 30.15 1021 10 16 N/A
9:55 am 09:55 Cloudy 56 13.4 48 9 75 75 SE 6 9 30.15 1021 10 16 N/A
10:15 am 10:15 Cloudy 56 13.5 49 9.3 76 76 SSE 6 9 30.15 1021 10 16 N/A
10:35 am 10:35 Cloudy 57 14 49 9.6 75 75 SE 6 9 30.15 1021 10 16 N/A
10:55 am 10:55 Cloudy 58 14.2 50 9.9 76 76 SE 6 9 30.15 1021 10 16 N/A
11:15 am 11:15 Cloudy 59 14.9 51 10.3 74 74 SE 8 13 30.12 1020 10 16 N/A
11:35 am 11:35 Cloudy 59 15.1 51 10.7 75 75 SSE 9 15 30.12 1020 10 16 N/A
11:55 am 11:55 Cloudy 61 16.1 52 11 72 72 SSE 8 13 30.12 1020 10 16 N/A
12:15 pm 12:15 Cloudy 62 16.5 51 10.8 69 69 SSE 10 17 30.09 1019 10 16 N/A
12:35 pm 12:35 Mostly Cloudy 62 16.6 51 10.3 67 67 S 12 19 30.09 1019 10 16 N/A
12:55 pm 12:55 Cloudy 63 17.2 50 10.1 63 63 SSE 13 20 30.09 1019 10 16 N/A
1:15 pm 13:15 Cloudy 64 17.5 50 10 62 62 SSE 13 20 30.06 1018 10 16 N/A
1:35 pm 13:35 Cloudy 63 17.1 50 10.1 64 64 SSE 13 20 30.09 1019 10 16 N/A
1:55 pm 13:55 Cloudy 64 17.5 50 9.8 61 61 S 13 20 30.06 1018 10 16 N/A
2:15 pm 14:15 Cloudy 63 17.3 49 9.6 61 61 SSE 10 17 30.06 1018 10 16 N/A
2:35 pm 14:35 Cloudy 63 17.3 49 9.4 60 60 SSE 12 19 30.06 1018 10 16 N/A
2:55 pm 14:55 Cloudy 63 17.2 49 9.5 61 61 SSE 12 19 30.06 1018 10 16 N/A
3:15 pm 15:15 Cloudy 64 17.5 50 10 62 62 SSE 10 17 30.03 1017 10 16 N/A
3:35 pm 15:35 Cloudy 64 17.9 50 9.8 59 59 S 14 22 30.03 1017 10 16 N/A
3:55 pm 15:55 Cloudy 66 18.8 51 10.5 59 59 S 12 19 30.03 1017 10 16 N/A
4:15 pm 16:15 Partly Cloudy 67 19.4 51 10.4 56 56 SSE 9 15 30.00 1016 10 16 N/A
4:35 pm 16:35 Sunny 67 19.5 51 10.7 57 57 S 12 19 30.00 1016 10 16 N/A
4:55 pm 16:55 Sunny 67 19.7 52 10.9 57 57 SSE 12 19 30.00 1016 10 16 N/A
5:15 pm 17:15 Sunny 67 19.7 51 10.7 56 56 SE 7 11 30.00 1016 10 16 N/A
5:35 pm 17:35 Sunny 68 19.8 52 10.9 57 57 SE 9 15 30.00 1016 10 16 N/A
5:55 pm 17:55 Sunny 68 20 51 10.6 55 55 SSE 7 11 30.00 1016 10 16 N/A
6:15 pm 18:15 Sunny 68 20 50 10.1 53 53 SE 10 17 30.00 1016 10 16 N/A
6:35 pm 18:35 Sunny 67 19.4 50 10.1 55 55 SE 9 15 30.00 1016 10 16 N/A
6:55 pm 18:55 Sunny 65 18.5 50 10.1 58 58 SE 9 15 30.00 1016 10 16 N/A
7:15 pm 19:15 Sunny 63 17.1 50 10.2 64 64 SE 8 13 30.03 1017 10 16 N/A
7:35 pm 19:35 Clear 62 16.6 50 10 65 65 SE 7 11 30.03 1017 10 16 N/A
7:55 pm 19:55 Clear 61 16.1 49 9.7 66 66 SE 8 13 30.06 1018 10 16 N/A
8:15 pm 20:15 Clear 60 15.6 49 9.7 68 68 SE 8 13 30.06 1018 10 16 N/A
8:35 pm 20:35 Clear 59 15 49 9.7 71 71 SE 8 13 30.06 1018 10 16 N/A
8:55 pm 20:55 Clear 59 14.8 50 9.8 72 72 SE 8 13 30.06 1018 10 16 N/A
9:15 pm 21:15 Clear 58 14.5 50 9.8 74 74 SE 9 15 30.06 1018 10 16 N/A
9:35 pm 21:35 Clear 57 13.9 49 9.6 75 75 SE 8 13 30.09 1019 10 16 N/A
9:55 pm 21:55 Clear 56 13.5 49 9.5 77 77 SE 7 11 30.09 1019 10 16 N/A
10:15 pm 22:15 Clear 55 13 49 9.5 79 79 SE 8 13 30.12 1020 10 16 N/A
10:35 pm 22:35 Clear 55 12.5 49 9.3 81 81 SE 8 13 30.12 1020 10 16 N/A
10:55 pm 22:55 Clear 54 12.1 49 9.3 83 83 SE 7 11 30.12 1020 10 16 N/A
11:15 pm 23:15 Clear 54 12 49 9.2 83 83 SE 7 11 30.12 1020 10 16 N/A
11:35 pm 23:35 Clear 53 11.5 48 9.1 85 85 SE 6 9 30.12 1020 10 16 N/A
11:55 pm 23:55 Clear 52 11.2 48 9 86 86 ESE 6 9 30.15 1021 10 16 N/A

Powered by AerisWeather